Tracking 27420 objects as of 11-Jun-2023
HD Live streaming from Space Station
objects crossing your sky now

STARLINK-5339

Track STARLINK-5339 now!
10-day predictions
STARLINK-5339 is classified as:


NORAD ID: 56510
Int'l Code: 2023-065H
Perigee: 361.0 km
Apogee: 363.3 km
Inclination: 43.0 °
Period: 91.6 minutes
Semi major axis: 6733 km
RCS: Unknown
Launch date: May 14, 2023
Source: United States (US)
Launch site: AIR FORCE EASTERN TEST RANGE (AFETR)
Your satellite tracking list
Your tracking list is empty




NASA's NSSDC Master Catalog

Two Line Element Set (TLE):
1 56510U 23065H   23161.66924751  .00001104  00000-0  11863-4 0  9995
2 56510  42.9994 278.6463 0001735 271.8644  88.2025 15.71353918  4743
Source of the keplerian elements: AFSPC